TimeCDT,TemperatureF,Dew PointF,Humidity,Sea Level PressureIn,VisibilityMPH,Wind Direction,Wind SpeedMPH,Gust SpeedMPH,PrecipitationIn,Events,Conditions,WindDirDegrees,DateUTC
12:53 AM,46.0,32.0,58,29.90,10.0,NE,10.4,-,N/A,,Scattered Clouds,50,2013-03-16 05:53:00
1:53 AM,43.0,30.9,62,29.90,10.0,NE,5.8,-,N/A,,Clear,40,2013-03-16 06:53:00
2:53 AM,41.0,30.0,65,29.92,10.0,NNE,8.1,-,N/A,,Clear,30,2013-03-16 07:53:00
3:53 AM,39.9,30.0,68,29.95,10.0,NE,13.8,19.6,N/A,,Clear,50,2013-03-16 08:53:00
4:53 AM,34.0,28.9,82,29.99,10.0,NE,8.1,-,N/A,,Clear,40,2013-03-16 09:53:00
5:50 AM,32.0,26.6,80,30.03,10.0,NE,8.1,-,N/A,,Mostly Cloudy,40,2013-03-16 10:50:00
5:53 AM,32.0,27.0,82,30.02,10.0,NNE,6.9,-,N/A,,Mostly Cloudy,30,2013-03-16 10:53:00
6:53 AM,30.9,26.1,82,30.05,10.0,North,10.4,-,N/A,,Overcast,10,2013-03-16 11:53:00
7:53 AM,30.9,25.0,79,30.06,10.0,North,5.8,-,N/A,,Overcast,10,2013-03-16 12:53:00
8:53 AM,30.9,25.0,79,30.08,10.0,North,12.7,-,N/A,,Overcast,10,2013-03-16 13:53:00
9:53 AM,32.0,25.0,75,30.09,10.0,NNE,11.5,-,N/A,,Overcast,30,2013-03-16 14:53:00
10:53 AM,34.0,25.0,70,30.10,10.0,NE,12.7,19.6,N/A,,Mostly Cloudy,40,2013-03-16 15:53:00
11:01 AM,35.6,24.8,65,30.07,10.0,NE,11.5,-,N/A,,Mostly Cloudy,40,2013-03-16 16:01:00
11:53 AM,37.0,24.1,59,30.09,10.0,NE,9.2,18.4,N/A,,Clear,50,2013-03-16 16:53:00
12:53 PM,39.0,23.0,53,30.08,10.0,NNE,9.2,-,N/A,,Clear,30,2013-03-16 17:53:00
1:53 PM,41.0,23.0,49,30.07,10.0,ENE,8.1,-,N/A,,Clear,60,2013-03-16 18:53:00
2:53 PM,41.0,21.9,47,30.06,10.0,NNE,4.6,17.3,N/A,,Overcast,30,2013-03-16 19:53:00
3:53 PM,39.0,21.9,50,30.06,10.0,NE,5.8,-,N/A,,Overcast,50,2013-03-16 20:53:00
4:53 PM,37.9,21.9,53,30.06,10.0,ENE,11.5,-,N/A,,Overcast,70,2013-03-16 21:53:00
5:53 PM,37.0,21.9,54,30.05,10.0,East,10.4,-,N/A,,Overcast,80,2013-03-16 22:53:00
6:53 PM,37.0,21.9,54,30.06,10.0,East,10.4,-,N/A,,Overcast,90,2013-03-16 23:53:00
7:53 PM,35.1,21.0,57,30.04,10.0,ESE,12.7,-,N/A,,Mostly Cloudy,110,2013-03-17 00:53:00
8:53 PM,34.0,19.9,56,30.04,10.0,East,16.1,-,N/A,,Mostly Cloudy,100,2013-03-17 01:53:00
9:53 PM,32.0,19.9,61,30.06,10.0,East,16.1,-,N/A,,Mostly Cloudy,100,2013-03-17 02:53:00
10:53 PM,30.0,19.0,64,30.08,10.0,ESE,13.8,-,N/A,,Partly Cloudy,110,2013-03-17 03:53:00
11:53 PM,32.0,18.0,56,30.05,10.0,SE,15.0,19.6,N/A,,Overcast,130,2013-03-17 04:53:00